sat.trackr.live / text

‹ back to catalog

CARTOSAT-2D

NORAD 41948 · 2017-008A

PAYLOAD ACTIVE UNKNOWN

§ Identity

Operator
Country
IND
Launch date
2017-02-15
Launch site
SRILR
Launch vehicle
Mass (kg)
RCS (m²)
2.23

Purposes: earth_obs

External: N2YO · Heavens-Above · Gunter

§ Orbital elements

Epoch: 2026-05-25T04:08:19.440672Z

Period
94.78 min
Inclination
97.4118°
Eccentricity
0.0003583
Mean motion
15.19293095 rev/d
Perigee alt
505.5 km
Apogee alt
510.4 km
Semi-major
6,886.1 km
B*
1.7917e-4
RAAN
204.9051°
Arg perigee
331.8771°
Mean anomaly
28.2270°
Rev number
51,408

§ Raw data

CARTOSAT-2D1 41948U 17008A   26145.17244723  .00003713  00000+0  17917-3 0  99912 41948  97.4118 204.9051 0003583 331.8771  28.2270 15.19293095514081

JSON: /api/v1/satellites/41948 · /tle

For live sub-satellite position, see the globe view (requires WebGL).

§ Visibility from observer

Set your observer location to see the next 7 days of passes ≥ 10°. The values pass through the URL so the page stays shareable.

No JS? Fill the form by hand. The geolocation button needs JavaScript.

§ Radio — SatNOGS DB

ModeDescriptionDownlinkUplink
CW Beacon 2.246 GHz
BPSK Mode U - BPSK 4K0 402.761 MHz

2 transmitters · refreshed weekly from db.satnogs.org